Location: Bothwell
(42.3833°S, 147.0000°E)
Time: 19:16:18
(UTC+11:00)

DIWATA 2B (PO-101) - Pass Details

Date: 04 October 2022
Orbit: 582 x 598 km, 98.0° (Epoch: 25 November)

Event Time Altitude Azimuth Distance (km) Brightness Sun altitude
Rises 04:32:15 0° 173° (S) 2,849 ? -23.4°
Reaches altitude 10° 04:34:28 10° 177° (S) 1,940 ? -23.0°
Enters shadow 04:38:03 48° 226° (SW) 784 ? -22.4°
